QPF
0.00 0.00 0.00 0.00 0.00 0.00 0.00 0.00 0.00 0.00 0.00 0.00 0.00 0.00 0.00 0.00 0.00 0.00 0.01 0.02 0.01 0.01 0.01 0.01 0.01 0.01 0.01 0.02 0.03 0.03 0.03 0.03 0.04 0.05 0.05 0.04 0.04 0.04 0.04 0.04 0.05 0.05 0.05 0.05
0.00 0.00 0.00 0.00 0.00 0.00 0.00 0.00 0.00 0.00 0.00 0.00 0.00 0.00 0.00 0.00 0.00 0.00 0.01 0.01 0.01 0.01 0.01 0.01 0.01 0.01 0.02 0.03 0.02 0.03 0.03 0.03 0.04 0.05 0.04 0.05 0.05 0.04 0.04 0.04 0.04 0.04 0.06 0.07
0.00 0.00 0.00 0.00 0.00 0.00 0.00 0.00 0.00 0.00 0.00 0.00 0.00 0.00 0.01 0.01 0.00 0.00 0.01 0.01 0.00 0.00 0.01 0.01 0.01 0.01 0.01 0.03 0.02 0.01 0.02 0.02 0.03 0.05 0.06 0.05 0.05 0.05 0.04 0.03 0.03 0.03 0.04 0.05
0.00 0.00 0.00 0.00 0.00 0.00 0.00 0.00 0.00 0.00 0.00 0.00 0.00 0.01 0.01 0.01 0.01 0.01 0.01 0.00 0.00 0.01 0.01 0.01 0.01 0.01 0.01 0.01 0.01 0.01 0.01 0.01 0.02 0.04 0.06 0.06 0.06 0.05 0.04 0.03 0.03 0.04 0.05 0.06
0.00 0.00 0.00 0.00 0.00 0.00 0.00 0.00 0.00 0.00 0.00 0.01 0.00 0.01 0.01 0.01 0.01 0.01 0.01 0.01 0.01 0.00 0.00 0.01 0.01 0.01 0.01 0.01 0.01 0.01 0.01 0.01 0.01 0.02 0.04 0.06 0.06 0.05 0.04 0.03 0.03 0.04 0.05 0.04
0.00 0.00 0.00 0.00 0.00 0.00 0.00 0.00 0.00 0.00 0.00 0.01 0.00 0.01 0.01 0.01 0.01 0.01 0.01 0.01 0.01 0.01 0.00 0.00 0.01 0.01 0.01 0.01 0.01 0.01 0.02 0.02 0.03 0.03 0.02 0.02 0.03 0.04 0.03 0.03 0.03 0.04 0.04 0.03
0.00 0.00 0.00 0.00 0.00 0.00 0.00 0.00 0.00 0.00 0.01 0.01 0.01 0.01 0.02 0.02 0.03 0.03 0.02 0.02 0.01 0.00 0.00 0.01 0.00 0.00 0.01 0.02 0.02 0.02 0.02 0.02 0.03 0.03 0.02 0.02 0.03 0.03 0.03 0.03 0.03 0.03 0.03 0.03
0.00 0.00 0.00 0.00 0.00 0.00 0.00 0.00 0.00 0.00 0.01 0.01 0.01 0.02 0.02 0.03 0.03 0.06 0.08 0.03 0.01 0.00 0.00 0.01 0.01 0.01 0.02 0.03 0.03 0.03 0.03 0.03 0.03 0.03 0.01 0.01 0.02 0.03 0.04 0.04 0.03 0.03 0.03 0.03
0.00 0.00 0.00 0.00 0.00 0.00 0.00 0.00 0.00 0.00 0.00 0.01 0.01 0.02 0.02 0.04 0.04 0.05 0.07 0.02 0.01 0.00 0.01 0.01 0.01 0.01 0.02 0.03 0.03 0.04 0.05 0.04 0.03 0.03 0.03 0.02 0.02 0.03 0.04 0.04 0.05 0.04 0.03 0.04
0.00 0.00 0.00 0.00 0.00 0.00 0.00 0.00 0.00 0.00 0.01 0.01 0.01 0.01 0.01 0.01 0.01 0.01 0.02 0.01 0.01 0.00 0.01 0.01 0.01 0.01 0.01 0.01 0.03 0.03 0.04 0.05 0.03 0.02 0.02 0.02 0.03 0.04 0.04 0.04 0.04 0.03 0.04 0.04
0.00 0.00 0.00 0.00 0.00 0.00 0.00 0.00 0.00 0.00 0.00 0.01 0.01 0.01 0.01 0.01 0.01 0.01 0.01 0.01 0.00 0.01 0.01 0.01 0.01 0.00 0.01 0.01 0.01 0.02 0.03 0.03 0.03 0.02 0.01 0.01 0.02 0.03 0.03 0.02 0.03 0.03 0.03 0.03
0.00 0.00 0.00 0.00 0.00 0.00 0.00 0.00 0.00 0.00 0.00 0.00 0.01 0.01 0.01 0.00 0.01 0.01 0.01 0.01 0.00 0.00 0.01 0.01 0.01 0.01 0.01 0.01 0.00 0.01 0.02 0.03 0.03 0.03 0.02 0.01 0.02 0.02 0.02 0.03 0.03 0.02 0.02 0.02
0.00 0.00 0.01 0.01 0.00 0.00 0.00 0.00 0.00 0.00 0.00 0.00 0.01 0.01 0.00 0.01 0.02 0.02 0.02 0.01 0.01 0.01 0.01 0.01 0.01 0.02 0.02 0.02 0.01 0.01 0.01 0.02 0.02 0.03 0.03 0.02 0.02 0.02 0.03 0.03 0.03 0.03 0.02 0.01
0.01 0.01 0.01 0.01 0.01 0.00 0.00 0.00 0.00 0.00 0.00 0.00 0.01 0.00 0.00 0.00 0.02 0.03 0.03 0.03 0.02 0.02 0.02 0.01 0.01 0.02 0.03 0.03 0.02 0.02 0.02 0.02 0.02 0.02 0.04 0.05 0.03 0.02 0.03 0.03 0.02 0.02 0.01 0.01
0.01 0.01 0.01 0.00 0.00 0.00 0.00 0.00 0.00 0.00 0.00 0.00 0.01 0.00 0.00 0.01 0.01 0.01 0.01 0.03 0.02 0.02 0.02 0.02 0.02 0.01 0.02 0.03 0.03 0.05 0.07 0.04 0.03 0.02 0.03 0.06 0.06 0.03 0.02 0.02 0.01 0.01 0.01 0.01
0.01 0.01 0.00 0.00 0.00 0.00 0.00 0.00 0.00 0.00 0.00 0.01 0.01 0.01 0.00 0.00 0.00 0.01 0.01 0.01 0.01 0.02 0.01 0.02 0.02 0.01 0.01 0.02 0.03 0.05 0.06 0.03 0.03 0.03 0.03 0.03 0.06 0.06 0.03 0.03 0.02 0.01 0.01 0.01
0.00 0.00 0.01 0.01 0.00 0.00 0.01 0.00 0.00 0.00 0.00 0.01 0.01 0.01 0.00 0.00 0.00 0.00 0.00 0.00 0.00 0.01 0.02 0.02 0.02 0.02 0.01 0.01 0.01 0.02 0.03 0.02 0.02 0.03 0.04 0.04 0.03 0.03 0.03 0.02 0.02 0.02 0.01 0.01
0.01 0.01 0.01 0.01 0.01 0.01 0.01 0.00 0.00 0.01 0.01 0.01 0.00 0.00 0.00 0.00 0.01 0.00 0.00 0.00 0.01 0.01 0.02 0.03 0.04 0.04 0.02 0.02 0.01 0.01 0.01 0.01 0.02 0.03 0.04 0.04 0.04 0.03 0.02 0.02 0.02 0.02 0.02 0.01
0.01 0.01 0.01 0.01 0.01 0.01 0.01 0.00 0.00 0.01 0.01 0.01 0.01 0.01 0.01 0.01 0.01 0.01 0.00 0.00 0.00 0.01 0.02 0.04 0.06 0.06 0.05 0.03 0.02 0.01 0.01 0.01 0.01 0.02 0.03 0.03 0.04 0.04 0.03 0.02 0.02 0.03 0.02 0.01
0.00 0.01 0.02 0.01 0.02 0.02 0.01 0.00 0.01 0.01 0.03 0.02 0.02 0.02 0.02 0.01 0.02 0.02 0.01 0.00 0.00 0.01 0.02 0.04 0.06 0.06 0.06 0.04 0.02 0.01 0.01 0.01 0.01 0.01 0.02 0.03 0.04 0.06 0.05 0.04 0.03 0.03 0.03 0.03
0.01 0.01 0.01 0.02 0.02 0.02 0.01 0.01 0.01 0.02 0.03 0.02 0.02 0.02 0.02 0.02 0.02 0.02 0.01 0.01 0.01 0.01 0.02 0.03 0.05 0.05 0.04 0.04 0.03 0.02 0.01 0.02 0.02 0.02 0.01 0.02 0.03 0.04 0.04 0.04 0.04 0.04 0.04 0.03
0.01 0.01 0.01 0.02 0.03 0.03 0.01 0.01 0.02 0.03 0.02 0.01 0.02 0.02 0.02 0.02 0.02 0.02 0.02 0.02 0.02 0.02 0.02 0.02 0.03 0.03 0.03 0.03 0.02 0.02 0.01 0.01 0.01 0.02 0.02 0.02 0.03 0.03 0.04 0.05 0.04 0.03 0.03 0.03
0.02 0.02 0.02 0.03 0.04 0.04 0.02 0.02 0.02 0.02 0.02 0.02 0.03 0.03 0.02 0.02 0.02 0.02 0.02 0.02 0.03 0.03 0.03 0.03 0.03 0.03 0.03 0.02 0.01 0.01 0.01 0.01 0.01 0.02 0.02 0.03 0.03 0.03 0.03 0.04 0.04 0.04 0.03 0.04
0.01 0.01 0.01 0.02 0.02 0.02 0.02 0.02 0.03 0.02 0.02 0.02 0.02 0.02 0.02 0.02 0.02 0.02 0.02 0.03 0.03 0.03 0.03 0.03 0.03 0.04 0.05 0.03 0.02 0.01 0.01 0.01 0.01 0.02 0.02 0.02 0.03 0.02 0.02 0.02 0.03 0.04 0.03 0.03
0.01 0.02 0.02 0.02 0.01 0.01 0.01 0.01 0.02 0.02 0.02 0.02 0.02 0.01 0.02 0.02 0.02 0.03 0.04 0.03 0.03 0.02 0.03 0.03 0.04 0.04 0.05 0.06 0.05 0.03 0.02 0.01 0.02 0.02 0.02 0.02 0.02 0.02 0.03 0.03 0.03 0.03 0.03 0.03
0.02 0.02 0.03 0.02 0.01 0.02 0.01 0.01 0.01 0.01 0.01 0.01 0.01 0.01 0.01 0.01 0.01 0.02 0.03 0.02 0.03 0.03 0.02 0.02 0.03 0.03 0.04 0.06 0.06 0.05 0.04 0.03 0.03 0.04 0.03 0.03 0.02 0.03 0.03 0.03 0.02 0.03 0.03 0.03
MSLP
1006.33 1006.76 1007.00 1007.07 1007.01 1006.87 1006.69 1006.49 1006.30 1006.09 1005.85 1005.55 1005.20 1004.80 1004.39 1004.03 1003.79 1003.73 1003.90 1004.31 1004.94 1005.75 1006.68 1007.64 1008.57 1009.43 1010.17 1010.79 1011.31 1011.75 1012.12 1012.44 1012.72 1012.95 1013.13 1013.26 1013.32 1013.34 1013.32 1013.29 1013.26 1013.27 1013.31 1013.40
1006.02 1006.36 1006.54 1006.59 1006.54 1006.43 1006.29 1006.15 1005.99 1005.79 1005.54 1005.21 1004.80 1004.33 1003.85 1003.43 1003.14 1003.05 1003.20 1003.62 1004.28 1005.14 1006.14 1007.18 1008.21 1009.15 1009.98 1010.68 1011.26 1011.73 1012.11 1012.42 1012.68 1012.88 1013.04 1013.15 1013.22 1013.25 1013.26 1013.26 1013.27 1013.31 1013.38 1013.49
1005.41 1005.69 1005.86 1005.92 1005.92 1005.90 1005.86 1005.81 1005.73 1005.59 1005.37 1005.04 1004.61 1004.10 1003.56 1003.08 1002.71 1002.55 1002.64 1002.99 1003.61 1004.45 1005.44 1006.51 1007.58 1008.59 1009.49 1010.27 1010.92 1011.45 1011.88 1012.22 1012.48 1012.69 1012.84 1012.95 1013.03 1013.08 1013.12 1013.17 1013.23 1013.32 1013.43 1013.56
1004.51 1004.77 1004.95 1005.07 1005.16 1005.25 1005.34 1005.42 1005.47 1005.44 1005.31 1005.04 1004.65 1004.15 1003.59 1003.06 1002.62 1002.36 1002.33 1002.56 1003.05 1003.78 1004.68 1005.69 1006.74 1007.77 1008.72 1009.58 1010.32 1010.95 1011.45 1011.85 1012.17 1012.41 1012.58 1012.71 1012.81 1012.89 1012.97 1013.06 1013.18 1013.32 1013.48 1013.64
1003.43 1003.68 1003.89 1004.08 1004.28 1004.49 1004.72 1004.96 1005.16 1005.29 1005.29 1005.16 1004.87 1004.45 1003.93 1003.40 1002.91 1002.55 1002.38 1002.43 1002.72 1003.25 1003.97 1004.84 1005.79 1006.78 1007.76 1008.68 1009.51 1010.24 1010.86 1011.37 1011.77 1012.08 1012.31 1012.48 1012.61 1012.72 1012.84 1012.97 1013.13 1013.31 1013.51 1013.70
1002.32 1002.58 1002.82 1003.06 1003.34 1003.66 1004.02 1004.40 1004.76 1005.05 1005.24 1005.29 1005.18 1004.92 1004.52 1004.04 1003.56 1003.12 1002.80 1002.65 1002.69 1002.95 1003.42 1004.07 1004.86 1005.75 1006.69 1007.64 1008.56 1009.40 1010.16 1010.80 1011.32 1011.73 1012.03 1012.26 1012.44 1012.59 1012.74 1012.90 1013.09 1013.29 1013.51 1013.71
1001.38 1001.63 1001.88 1002.14 1002.45 1002.82 1003.26 1003.74 1004.24 1004.70 1005.09 1005.37 1005.49 1005.44 1005.24 1004.89 1004.46 1004.00 1003.56 1003.20 1002.99 1002.95 1003.11 1003.48 1004.05 1004.78 1005.64 1006.58 1007.55 1008.50 1009.38 1010.16 1010.81 1011.34 1011.75 1012.05 1012.28 1012.47 1012.64 1012.82 1013.01 1013.22 1013.44 1013.64
1000.76 1000.99 1001.21 1001.44 1001.72 1002.08 1002.52 1003.04 1003.63 1004.23 1004.81 1005.32 1005.70 1005.93 1005.97 1005.82 1005.50 1005.06 1004.55 1004.03 1003.57 1003.23 1003.08 1003.15 1003.45 1003.98 1004.71 1005.59 1006.57 1007.58 1008.57 1009.48 1010.26 1010.91 1011.42 1011.80 1012.09 1012.31 1012.50 1012.69 1012.88 1013.08 1013.28 1013.46
1000.56 1000.74 1000.90 1001.05 1001.25 1001.52 1001.90 1002.39 1003.00 1003.70 1004.43 1005.16 1005.80 1006.30 1006.61 1006.69 1006.55 1006.18 1005.65 1005.01 1004.36 1003.76 1003.32 1003.09 1003.12 1003.42 1003.98 1004.76 1005.70 1006.74 1007.79 1008.78 1009.67 1010.42 1011.02 1011.48 1011.82 1012.08 1012.28 1012.47 1012.65 1012.83 1013.01 1013.18
1000.74 1000.87 1000.95 1001.00 1001.07 1001.21 1001.47 1001.88 1002.46 1003.19 1004.03 1004.92 1005.79 1006.55 1007.13 1007.45 1007.48 1007.24 1006.74 1006.05 1005.26 1004.47 1003.79 1003.30 1003.07 1003.14 1003.52 1004.16 1005.02 1006.02 1007.08 1008.10 1009.05 1009.86 1010.53 1011.05 1011.44 1011.73 1011.95 1012.14 1012.32 1012.49 1012.65 1012.80
1001.21 1001.29 1001.28 1001.22 1001.16 1001.17 1001.30 1001.61 1002.12 1002.84 1003.73 1004.73 1005.76 1006.72 1007.51 1008.04 1008.26 1008.14 1007.71 1007.03 1006.18 1005.28 1004.43 1003.75 1003.32 1003.19 1003.38 1003.87 1004.60 1005.51 1006.50 1007.50 1008.44 1009.27 1009.96 1010.52 1010.95 1011.27 1011.53 1011.74 1011.92 1012.09 1012.26 1012.41
1001.76 1001.82 1001.76 1001.62 1001.47 1001.37 1001.40 1001.62 1002.06 1002.75 1003.64 1004.69 1005.81 1006.88 1007.81 1008.49 1008.85 1008.86 1008.52 1007.89 1007.05 1006.11 1005.18 1004.39 1003.83 1003.55 1003.57 1003.90 1004.48 1005.24 1006.12 1007.03 1007.91 1008.70 1009.38 1009.94 1010.40 1010.76 1011.05 1011.29 1011.51 1011.71 1011.89 1012.06
1002.24 1002.29 1002.22 1002.08 1001.91 1001.77 1001.76 1001.93 1002.33 1002.98 1003.85 1004.89 1006.02 1007.13 1008.11 1008.86 1009.30 1009.39 1009.14 1008.59 1007.82 1006.91 1006.00 1005.18 1004.56 1004.18 1004.08 1004.25 1004.66 1005.26 1005.97 1006.73 1007.49 1008.20 1008.83 1009.38 1009.84 1010.23 1010.57 1010.87 1011.14 1011.39 1011.62 1011.82
1002.50 1002.59 1002.58 1002.50 1002.39 1002.31 1002.34 1002.53 1002.94 1003.56 1004.40 1005.39 1006.46 1007.52 1008.46 1009.19 1009.64 1009.78 1009.60 1009.14 1008.47 1007.66 1006.83 1006.07 1005.45 1005.04 1004.85 1004.89 1005.13 1005.53 1006.05 1006.63 1007.23 1007.81 1008.36 1008.86 1009.33 1009.75 1010.15 1010.51 1010.86 1011.17 1011.46 1011.71
1002.54 1002.71 1002.80 1002.85 1002.88 1002.95 1003.10 1003.38 1003.84 1004.47 1005.26 1006.17 1007.13 1008.07 1008.89 1009.54 1009.93 1010.07 1009.93 1009.55 1009.00 1008.33 1007.63 1006.97 1006.42 1006.02 1005.78 1005.71 1005.80 1006.01 1006.32 1006.69 1007.10 1007.53 1007.98 1008.43 1008.88 1009.34 1009.79 1010.23 1010.65 1011.04 1011.39 1011.69
1002.44 1002.70 1002.95 1003.18 1003.41 1003.67 1004.00 1004.43 1004.97 1005.62 1006.37 1007.18 1007.99 1008.76 1009.41 1009.91 1010.20 1010.28 1010.15 1009.84 1009.40 1008.88 1008.34 1007.82 1007.37 1007.01 1006.75 1006.60 1006.54 1006.57 1006.67 1006.84 1007.06 1007.34 1007.67 1008.07 1008.50 1008.99 1009.49 1010.00 1010.50 1010.96 1011.37 1011.71
1002.37 1002.75 1003.15 1003.57 1004.02 1004.50 1005.03 1005.61 1006.25 1006.93 1007.63 1008.32 1008.97 1009.54 1009.99 1010.29 1010.43 1010.43 1010.28 1010.02 1009.68 1009.30 1008.91 1008.53 1008.19 1007.88 1007.62 1007.40 1007.22 1007.08 1007.00 1006.97 1007.02 1007.16 1007.39 1007.72 1008.15 1008.65 1009.21 1009.78 1010.34 1010.86 1011.31 1011.68
1002.54 1003.02 1003.56 1004.16 1004.80 1005.47 1006.17 1006.88 1007.60 1008.28 1008.92 1009.49 1009.96 1010.32 1010.55 1010.65 1010.64 1010.52 1010.33 1010.09 1009.82 1009.55 1009.28 1009.03 1008.77 1008.52 1008.25 1007.98 1007.70 1007.42 1007.18 1007.00 1006.91 1006.92 1007.08 1007.36 1007.78 1008.30 1008.89 1009.51 1010.11 1010.67 1011.15 1011.53
1003.12 1003.68 1004.32 1005.03 1005.80 1006.60 1007.40 1008.19 1008.92 1009.58 1010.14 1010.57 1010.86 1011.02 1011.04 1010.95 1010.78 1010.55 1010.30 1010.05 1009.82 1009.62 1009.44 1009.26 1009.07 1008.84 1008.57 1008.25 1007.89 1007.51 1007.15 1006.86 1006.66 1006.60 1006.70 1006.96 1007.37 1007.90 1008.51 1009.16 1009.79 1010.36 1010.85 1011.23
1004.18 1004.78 1005.46 1006.22 1007.03 1007.86 1008.68 1009.46 1010.16 1010.74 1011.19 1011.47 1011.60 1011.57 1011.42 1011.16 1010.85 1010.52 1010.20 1009.93 1009.70 1009.53 1009.38 1009.24 1009.07 1008.85 1008.56 1008.20 1007.78 1007.34 1006.91 1006.55 1006.30 1006.20 1006.27 1006.52 1006.92 1007.46 1008.08 1008.73 1009.37 1009.94 1010.42 1010.79
1005.66 1006.27 1006.94 1007.66 1008.42 1009.19 1009.94 1010.63 1011.23 1011.69 1012.00 1012.14 1012.12 1011.94 1011.64 1011.25 1010.83 1010.42 1010.04 1009.73 1009.49 1009.31 1009.16 1009.02 1008.84 1008.61 1008.29 1007.90 1007.45 1006.97 1006.52 1006.13 1005.87 1005.77 1005.84 1006.09 1006.50 1007.03 1007.65 1008.28 1008.90 1009.45 1009.91 1010.28
1007.43 1008.00 1008.60 1009.22 1009.86 1010.49 1011.09 1011.63 1012.07 1012.38 1012.54 1012.55 1012.39 1012.10 1011.70 1011.23 1010.74 1010.27 1009.85 1009.51 1009.24 1009.03 1008.85 1008.68 1008.48 1008.21 1007.87 1007.47 1007.00 1006.53 1006.08 1005.72 1005.48 1005.40 1005.48 1005.74 1006.15 1006.67 1007.25 1007.86 1008.44 1008.96 1009.41 1009.76
1009.25 1009.76 1010.24 1010.72 1011.18 1011.62 1012.03 1012.37 1012.63 1012.78 1012.80 1012.68 1012.43 1012.06 1011.60 1011.10 1010.58 1010.09 1009.65 1009.28 1008.98 1008.74 1008.53 1008.32 1008.08 1007.80 1007.44 1007.03 1006.59 1006.14 1005.73 1005.41 1005.21 1005.16 1005.27 1005.53 1005.92 1006.41 1006.95 1007.50 1008.04 1008.52 1008.95 1009.31
1010.91 1011.32 1011.67 1011.98 1012.25 1012.48 1012.68 1012.82 1012.90 1012.89 1012.78 1012.57 1012.26 1011.85 1011.38 1010.88 1010.37 1009.89 1009.45 1009.08 1008.77 1008.51 1008.27 1008.03 1007.77 1007.46 1007.11 1006.71 1006.30 1005.89 1005.54 1005.26 1005.11 1005.09 1005.20 1005.45 1005.81 1006.25 1006.73 1007.22 1007.70 1008.14 1008.55 1008.92
1012.20 1012.51 1012.73 1012.87 1012.95 1012.99 1012.99 1012.96 1012.88 1012.74 1012.54 1012.26 1011.92 1011.51 1011.06 1010.59 1010.12 1009.68 1009.28 1008.93 1008.63 1008.36 1008.11 1007.86 1007.58 1007.28 1006.93 1006.56 1006.18 1005.81 1005.50 1005.27 1005.15 1005.13 1005.24 1005.45 1005.76 1006.13 1006.54 1006.96 1007.38 1007.79 1008.18 1008.56
1013.04 1013.25 1013.34 1013.34 1013.26 1013.15 1012.99 1012.82 1012.62 1012.39 1012.12 1011.82 1011.47 1011.09 1010.68 1010.26 1009.85 1009.47 1009.12 1008.81 1008.54 1008.29 1008.04 1007.80 1007.53 1007.23 1006.90 1006.55 1006.19 1005.86 1005.57 1005.35 1005.22 1005.19 1005.26 1005.42 1005.65 1005.94 1006.27 1006.63 1007.00 1007.38 1007.77 1008.17
Thickness
5775 5770 5769 5776 5779 5778 5775 5770 5767 5773 5781 5773 5769 5771 5778 5783 5779 5777 5776 5776 5773 5771 5771 5767 5762 5758 5754 5750 5746 5743 5740 5738 5736 5735 5734 5732 5731 5731 5730 5730 5729 5727 5727 5726
5766 5767 5780 5783 5779 5773 5770 5766 5767 5772 5776 5769 5766 5769 5779 5780 5776 5776 5774 5773 5772 5770 5766 5762 5758 5755 5752 5748 5745 5742 5739 5737 5735 5734 5732 5731 5730 5730 5729 5728 5726 5725 5725 5724
5765 5777 5781 5774 5770 5765 5767 5766 5767 5764 5769 5771 5764 5763 5771 5775 5775 5774 5773 5772 5771 5768 5763 5759 5756 5753 5750 5747 5744 5742 5739 5736 5734 5733 5731 5729 5727 5727 5726 5725 5724 5724 5723 5722
5770 5779 5774 5769 5768 5767 5763 5774 5770 5764 5758 5759 5761 5748 5764 5769 5767 5766 5767 5768 5768 5767 5764 5760 5756 5752 5750 5748 5745 5741 5738 5735 5732 5730 5729 5726 5724 5723 5724 5723 5723 5722 5721 5720
5768 5773 5768 5764 5769 5769 5768 5774 5768 5764 5759 5756 5760 5750 5759 5767 5759 5761 5763 5765 5766 5766 5763 5759 5756 5754 5752 5749 5745 5741 5737 5734 5731 5729 5727 5724 5723 5723 5723 5722 5719 5718 5718 5718
5772 5779 5775 5772 5775 5773 5771 5766 5763 5762 5761 5742 5753 5746 5747 5758 5753 5757 5761 5762 5762 5763 5761 5759 5757 5754 5750 5747 5744 5740 5735 5732 5730 5728 5726 5724 5722 5721 5720 5718 5717 5716 5717 5716
5762 5769 5775 5775 5764 5765 5763 5752 5742 5740 5742 5743 5755 5744 5744 5755 5757 5757 5756 5758 5760 5760 5758 5755 5753 5750 5747 5744 5741 5738 5734 5730 5729 5727 5725 5723 5721 5720 5718 5717 5716 5716 5716 5715
5751 5754 5768 5770 5764 5760 5758 5754 5737 5727 5733 5744 5750 5741 5748 5756 5757 5757 5756 5756 5756 5756 5756 5754 5752 5750 5746 5743 5740 5737 5733 5730 5728 5726 5724 5722 5720 5719 5719 5717 5717 5716 5716 5715
5751 5751 5768 5770 5771 5766 5755 5755 5762 5745 5740 5734 5742 5744 5747 5753 5750 5750 5750 5750 5750 5751 5751 5751 5750 5748 5746 5742 5739 5736 5732 5729 5726 5724 5722 5720 5718 5718 5718 5716 5715 5715 5714 5714
5755 5743 5758 5764 5765 5762 5763 5759 5748 5740 5723 5721 5733 5736 5739 5737 5739 5743 5743 5745 5747 5748 5748 5747 5746 5745 5744 5741 5738 5734 5731 5728 5726 5724 5721 5720 5717 5716 5715 5714 5713 5713 5711 5711
5753 5738 5745 5751 5746 5748 5747 5745 5743 5742 5739 5724 5721 5730 5742 5737 5737 5736 5739 5741 5742 5743 5744 5743 5742 5741 5739 5738 5735 5731 5728 5725 5724 5722 5720 5718 5716 5715 5713 5712 5712 5710 5709 5707
5745 5739 5735 5743 5753 5755 5750 5745 5740 5725 5724 5729 5725 5725 5741 5738 5737 5735 5734 5735 5737 5737 5739 5739 5738 5736 5734 5732 5730 5727 5726 5723 5722 5720 5718 5716 5714 5713 5711 5710 5709 5708 5706 5706
5736 5727 5718 5725 5732 5739 5737 5738 5739 5736 5729 5724 5718 5720 5733 5733 5731 5730 5729 5729 5730 5731 5732 5733 5731 5729 5728 5726 5725 5723 5721 5719 5719 5718 5715 5713 5711 5710 5709 5708 5706 5705 5704 5703
5730 5722 5718 5715 5723 5730 5725 5727 5729 5727 5721 5717 5719 5718 5723 5723 5722 5722 5723 5723 5724 5724 5724 5723 5723 5722 5722 5721 5720 5718 5717 5716 5715 5714 5712 5709 5708 5707 5707 5706 5704 5702 5701 5700
5720 5714 5718 5723 5727 5725 5720 5720 5720 5717 5718 5714 5715 5714 5714 5715 5716 5716 5716 5717 5717 5717 5717 5717 5715 5715 5715 5715 5714 5713 5712 5712 5711 5710 5708 5707 5706 5705 5703 5702 5700 5699 5698 5698
5709 5706 5709 5709 5716 5716 5711 5713 5714 5711 5712 5711 5710 5707 5712 5712 5712 5710 5710 5710 5710 5710 5711 5711 5710 5709 5709 5709 5709 5708 5707 5707 5706 5705 5705 5704 5703 5701 5699 5698 5697 5696 5695 5695
5702 5697 5696 5698 5707 5703 5697 5704 5704 5701 5703 5703 5698 5699 5704 5702 5701 5701 5702 5703 5704 5705 5705 5704 5704 5703 5703 5704 5705 5703 5704 5703 5702 5701 5701 5700 5699 5697 5697 5696 5694 5692 5691 5691
5687 5688 5691 5693 5689 5676 5691 5704 5701 5694 5691 5695 5694 5694 5695 5694 5697 5698 5698 5696 5697 5698 5698 5699 5699 5699 5700 5700 5700 5700 5700 5699 5697 5697 5697 5697 5695 5694 5693 5692 5691 5690 5688 5688
5681 5678 5680 5682 5680 5681 5682 5688 5688 5683 5678 5683 5682 5684 5686 5690 5692 5692 5692 5691 5691 5693 5693 5693 5694 5694 5694 5694 5694 5694 5694 5694 5693 5693 5693 5694 5693 5691 5689 5688 5687 5686 5685 5684
5672 5671 5670 5672 5667 5666 5669 5679 5684 5679 5666 5671 5671 5670 5674 5678 5678 5680 5681 5683 5685 5686 5687 5687 5688 5688 5687 5687 5688 5687 5687 5688 5689 5690 5690 5690 5689 5687 5686 5685 5684 5683 5682 5682
5656 5656 5657 5659 5658 5659 5659 5668 5672 5657 5653 5658 5661 5661 5662 5663 5665 5668 5672 5674 5677 5679 5680 5681 5681 5681 5681 5681 5681 5680 5682 5683 5685 5686 5687 5686 5685 5684 5683 5682 5680 5680 5680 5680
5641 5645 5645 5647 5644 5641 5648 5653 5646 5642 5647 5649 5650 5652 5652 5653 5656 5660 5663 5666 5668 5671 5673 5674 5673 5674 5675 5675 5675 5675 5676 5678 5680 5681 5681 5681 5680 5680 5681 5678 5677 5676 5676 5675
5627 5628 5632 5632 5630 5630 5636 5635 5634 5636 5636 5638 5640 5643 5643 5644 5647 5651 5654 5657 5660 5662 5664 5665 5666 5666 5667 5668 5669 5669 5670 5673 5675 5675 5675 5675 5675 5675 5676 5675 5673 5672 5672 5673
5616 5618 5620 5619 5621 5622 5624 5624 5625 5626 5626 5628 5632 5634 5636 5636 5639 5642 5645 5648 5650 5653 5655 5656 5658 5659 5659 5661 5662 5663 5666 5667 5668 5668 5669 5670 5669 5669 5669 5669 5670 5670 5669 5670
5601 5604 5606 5607 5609 5613 5615 5614 5614 5616 5618 5620 5623 5625 5628 5629 5631 5634 5636 5639 5642 5644 5646 5647 5649 5651 5652 5654 5655 5657 5659 5659 5660 5661 5663 5664 5664 5664 5663 5663 5664 5665 5665 5666
5590 5590 5592 5595 5598 5599 5601 5605 5606 5607 5609 5611 5613 5616 5619 5621 5623 5626 5629 5631 5633 5635 5637 5639 5641 5643 5644 5646 5647 5649 5651 5652 5652 5653 5655 5657 5659 5658 5658 5657 5656 5654 5655 5654